Find Starlink 36906

NORAD ID: 68036 Int'l Des: 2026-040 Owner: SPXS Country: US Constellation: starlink operational
LEOCIRCULARRETROGRADE

リアルタイム位置

3D地球を読み込み中...

Starlink 36906について

説明を読み込み中...

次回通過

Passes for default location (London). Set your location on the main map for personalized predictions.

高度履歴

Loading altitude history...

軌道要素

1 68036U 26040Y 26106.91668981 -.02250334 00000-0 -69346-1 0 9998
2 68036 97.2857 56.5116 0001743 56.3584 314.6684 15.37085696 6023
Epoch: Apr 16, 2026 • Age: 9 hours

現在のステータス

高度 489.1 km
速度 7.62 km/s
衛星直下点 -79.82°S, 151.92°E
打ち上げ日 Mar 1, 2026
運用期間 0.1 years
タイプ internet

技術仕様

分類 Payload
質量 575.00 kg
乾燥質量 530.00 kg
総質量 575.00 kg
長さ 0.30 m
直径 4.10 m
スパン 29.00 m
形状 Box + pan
製造者 SPXS
バスタイプ Starlink V2MO
フェーズステータス In Orbit
所有者/国 SPXS/US

Most Searched